Weather History for KCIC - October, 2012

Change the Weather History Date:

Monday, October 29, 2012

  Actual Average (KOVE) Record (KOVE)
Temperature  
Mean Temperature 64 °F -  
Max Temperature 77 °F 71 °F 88 °F (1953)
Min Temperature 50 °F 46 °F 31 °F (1971)
Degree Days  
Heating Degree Days 2    
Growing Degree Days 14 (Base 50)    
Moisture  
Dew Point 49 °F    
Average Humidity 69    
Maximum Humidity 94    
Minimum Humidity 36    
Precipitation  
Precipitation 0.00 in - - ()
Sea Level Pressure  
Sea Level Pressure 30.06 in    
Wind  
Wind Speed 3 mph (North)    
Max Wind Speed 9 mph    
Max Gust Speed -    
Visibility 10 miles    
Events      
Averages and records for this station are not official NWS values.
T = Trace of Precipitation, MM = Missing Value Source: NWS Daily Summary

Daily Weather History Graph

Daily Weather History Graph

Search for Another Location

Airport or City:

Trip Planner

Search our weather history database for the weather conditions in past years. The results will help you decide how hot, cold, wet, or windy it might be!

Date:

Astronomy

Oct. 29, 2012 Rise Set
Actual Time 7:33 AM PDT 6:08 PM PDT
Civil Twilight 7:05 AM PDT 6:36 PM PDT
Nautical Twilight 6:33 AM PDT 7:07 PM PDT
Astronomical Twilight 6:02 AM PDT 7:39 PM PDT
Moon 6:03 PM PDT (10/29) 7:28 AM PDT (10/29)
Length of Visible Light 11h 30m
Length of Day
10h 34m
Full, 100% of the Moon is Illuminated
Oct 29
Full
Oct 29
Full
Nov 6
Last Quarter
Nov 13
New
Nov 20
First Quarter

Hourly Weather History & Observations

Time (PDT) Temp. Dew Point Humidity Pressure Visibility Wind Dir Wind Speed Gust Speed Precip Events Conditions
12:15 AM 62.6 °F 50.0 °F 63% 30.02 in 10.0 mi Calm Calm - N/A   Clear
12:35 AM 62.6 °F 50.0 °F 63% 30.02 in 10.0 mi ENE 5.8 mph - N/A   Clear
12:55 AM 59.0 °F 50.0 °F 72% 30.02 in 10.0 mi ENE 3.5 mph - N/A   Clear
1:15 AM 60.8 °F 50.0 °F 68% 30.03 in 10.0 mi Calm Calm - N/A   Clear
2:15 AM 55.4 °F 50.0 °F 82% 30.04 in 10.0 mi NNW 5.8 mph - N/A   Clear
2:55 AM 59.0 °F 50.0 °F 72% 30.04 in 10.0 mi NNW 5.8 mph - N/A   Scattered Clouds
3:15 AM 57.2 °F 48.2 °F 72% 30.04 in 10.0 mi North 3.5 mph - N/A   Mostly Cloudy
3:35 AM 55.4 °F 50.0 °F 82% 30.04 in 10.0 mi Calm Calm - N/A   Partly Cloudy
3:55 AM 55.4 °F 50.0 °F 82% 30.05 in 10.0 mi Calm Calm - N/A   Mostly Cloudy
4:15 AM 53.6 °F 48.2 °F 82% 30.05 in 10.0 mi Calm Calm - N/A   Mostly Cloudy
4:35 AM 55.4 °F 50.0 °F 82% 30.05 in 10.0 mi Calm Calm - N/A   Overcast
4:55 AM 55.4 °F 50.0 °F 82% 30.06 in 10.0 mi Calm Calm - N/A   Overcast
5:15 AM 55.4 °F 50.0 °F 82% 30.06 in 10.0 mi Calm Calm - N/A   Overcast
5:35 AM 55.4 °F 50.0 °F 82% 30.07 in 10.0 mi Calm Calm - N/A   Overcast
5:55 AM 53.6 °F 48.2 °F 82% 30.07 in 10.0 mi Calm Calm - N/A   Overcast
6:15 AM 50.0 °F 48.2 °F 94% 30.08 in 10.0 mi West 3.5 mph - N/A   Overcast
6:50 AM 51.8 °F 48.2 °F 88% 30.08 in 10.0 mi NNW 4.6 mph - N/A   Clear
6:55 AM 51.8 °F 48.2 °F 88% 30.08 in 10.0 mi NW 3.5 mph - N/A   Overcast
7:15 AM 50.0 °F 48.2 °F 94% 30.09 in 10.0 mi NNW 5.8 mph - N/A   Mostly Cloudy
7:35 AM 50.0 °F 48.2 °F 94% 30.09 in 10.0 mi NNW 5.8 mph - N/A   Partly Cloudy
7:58 AM 50.0 °F 48.2 °F 94% 30.10 in 40.0 mi NNW 4.6 mph - N/A   Clear
8:58 AM 55.4 °F 48.2 °F 77% 30.12 in 40.0 mi East 4.6 mph - N/A   Clear
9:58 AM 59.0 °F 53.6 °F 82% 30.12 in 40.0 mi NNW 5.8 mph - N/A   Clear
10:50 AM 64.4 °F 50.0 °F 59% 30.12 in 40.0 mi NNW 5.8 mph - N/A   Clear
11:50 AM 68.0 °F 50.0 °F 52% 30.13 in 40.0 mi NNW 9.2 mph - N/A   Clear
12:50 PM 73.4 °F 50.0 °F 44% 30.10 in 40.0 mi NW 6.9 mph - N/A   Partly Cloudy
1:52 PM 75.2 °F 48.2 °F 38% 30.07 in 40.0 mi Calm Calm - N/A   Partly Cloudy
2:47 PM 77.0 °F 48.2 °F 36% 30.06 in 40.0 mi SSE 6.9 mph - N/A   Partly Cloudy
3:47 PM 77.0 °F 48.2 °F 36% 30.04 in 40.0 mi South 6.9 mph - N/A   Partly Cloudy
4:47 PM 77.0 °F 48.2 °F 36% 30.03 in 40.0 mi Calm Calm - N/A   Scattered Clouds
5:47 PM 75.2 °F 50.0 °F 41% 30.03 in 40.0 mi Calm Calm - N/A   Scattered Clouds
6:47 PM 71.6 °F 50.0 °F 46% 30.03 in 40.0 mi Calm Calm - N/A   Scattered Clouds
8:35 PM 64.4 °F 50.0 °F 59% 30.05 in 10.0 mi SE 4.6 mph - N/A   Clear
8:55 PM 62.6 °F 50.0 °F 63% 30.04 in 10.0 mi East 3.5 mph - N/A   Clear
9:15 PM 62.6 °F 50.0 °F 63% 30.04 in 10.0 mi ENE 4.6 mph - N/A   Clear
9:35 PM 62.6 °F 50.0 °F 63% 30.04 in 10.0 mi Calm Calm - N/A   Clear
9:55 PM 62.6 °F 48.2 °F 59% 30.05 in 10.0 mi Calm Calm - N/A   Clear
10:15 PM 62.6 °F 48.2 °F 59% 30.05 in 10.0 mi Calm Calm - N/A   Clear
10:35 PM 59.0 °F 50.0 °F 72% 30.05 in 10.0 mi ENE 3.5 mph - N/A   Clear
10:55 PM 60.8 °F 48.2 °F 63% 30.05 in 10.0 mi Calm Calm - N/A   Clear
11:15 PM 59.0 °F 50.0 °F 72% 30.06 in 10.0 mi Calm Calm - N/A   Clear
11:35 PM 59.0 °F 48.2 °F 67% 30.06 in 10.0 mi ENE 3.5 mph - N/A   Partly Cloudy